Home   Weather   Rostov-on-Don   Past weeks
Flag for Russia

Past Weather in Rostov-on-Don, Russia — Yesterday and Last 2 Weeks

Now
57 °F

Passing clouds.


Feels Like: 56 °F
Forecast: 74 / 48 °F
Wind: 6 mph from Northeast

Location: Anapa / Vitiazevo

Current Time: Oct 14, 2019 at 7:12:58 pm

Latest Report: Oct 14, 2019 at 6:30 pm


Visibility: N/A

Pressure: 30.21 "Hg

Humidity: 82%

Dew Point: 52 °F

Location of Rostov-on-DonLocation

Past Weather in Rostov-on-Don — Graph

°F

Rostov-on-Don Temperature Yesterday

Maximum temperature yesterday: 68 °F (at 2:00 pm)
Minimum temperature yesterday: 45 °F (at 2:30 am)
Average temperature yesterday: 55 °F

High & Low Weather Summary for the Past Weeks

 TemperatureHumidityPressure
High90 °F (Oct 3, 12:30 pm)100% (Sep 30, 10:30 pm)30.36 "Hg (Sep 30, 10:30 pm)
Low37 °F (Oct 9, 3:30 am)24% (Oct 3, 12:30 pm)29.59 "Hg (Oct 5, 1:00 pm)
Average60 °F82%30.01 "Hg
* Reported Sep 29 6:00 pm — Oct 14 6:00 pm, Rostov-on-Don. Weather by CustomWeather, © 2019

Note: Actual official high and low records may vary slightly from our data, if they occured in-between our weather recording intervals... More about our weather records

Advertising

Rostov-on-Don Weather History for the Previous 24 Hours

Scroll right to see more
 ConditionsComfort  
Time TempWeatherWind HumidityBarometerVisibility
6:00 pm
Mon, Oct 14
63 °FPassing clouds.8 mph68%30.18 "HgN/A
5:00 pm70 °FPassing clouds.8 mph50%30.18 "HgN/A
4:30 pm72 °FPassing clouds.8 mph47%30.21 "HgN/A
4:00 pm73 °FPassing clouds.8 mph44%30.21 "HgN/A
3:30 pm75 °FPassing clouds.6 mph41%30.21 "HgN/A
3:00 pm73 °FPassing clouds.8 mph44%30.21 "HgN/A
2:30 pm75 °FPassing clouds.6 mph41%30.21 "HgN/A
2:00 pm77 °FPassing clouds.8 mph39%30.21 "HgN/A
1:30 pm75 °FSunny.10 mph41%30.24 "Hg10 mi
1:00 pm75 °FSunny.10 mph41%30.24 "Hg10 mi
12:30 pm75 °FPassing clouds.8 mph41%30.24 "HgN/A
12:00 pm75 °FSunny.8 mph39%30.24 "Hg10 mi
11:30 am75 °FSunny.8 mph41%30.24 "Hg10 mi
11:00 am75 °FPassing clouds.6 mph36%30.27 "HgN/A
10:30 am72 °FPassing clouds.6 mph53%30.27 "HgN/A
10:00 am70 °FPassing clouds.8 mph57%30.27 "HgN/A
9:00 am63 °FSunny.3 mph73%30.27 "Hg10 mi
8:30 am59 °FSunny.1 mph82%30.27 "Hg10 mi
8:00 am55 °FSunny.1 mph88%30.27 "Hg10 mi
7:30 am50 °FSunny.6 mph100%30.27 "Hg10 mi
7:00 am50 °FSunny.No wind100%30.27 "Hg10 mi
6:30 am48 °FClear.1 mph100%30.27 "Hg10 mi
6:00 am48 °FClear.8 mph94%30.27 "Hg10 mi
5:30 am50 °FClear.8 mph94%30.27 "Hg10 mi
5:00 am46 °FClear.8 mph100%30.27 "Hg10 mi
4:30 am46 °FPassing clouds.3 mph87%30.27 "HgN/A
4:00 am46 °FClear.3 mph87%30.27 "Hg10 mi
3:30 am48 °FClear.6 mph87%30.27 "Hg10 mi
3:00 am48 °FClear.1 mph87%30.27 "Hg10 mi
2:30 am50 °FClear.1 mph88%30.30 "Hg10 mi
2:00 am50 °FClear.6 mph88%30.30 "Hg10 mi
1:30 am46 °FClear.6 mph93%30.30 "Hg10 mi
1:00 am46 °FClear.6 mph87%30.30 "Hg10 mi
12:30 am48 °FClear.3 mph87%30.30 "Hg10 mi
12:00 am46 °FClear.3 mph100%30.30 "Hg10 mi
11:30 pm
Sun, Oct 13
48 °FClear.3 mph100%30.30 "Hg10 mi
11:00 pm46 °FClear.3 mph100%30.30 "Hg10 mi
10:30 pm48 °FClear.1 mph94%30.30 "Hg10 mi
10:00 pm50 °FClear.3 mph94%30.30 "Hg10 mi
9:30 pm48 °FClear.6 mph100%30.30 "Hg10 mi
9:00 pm48 °FClear.6 mph100%30.30 "Hg10 mi
8:30 pm48 °FClear.3 mph94%30.30 "Hg10 mi
8:00 pm50 °FClear.1 mph94%30.30 "Hg10 mi
7:30 pm50 °FClear.3 mph94%30.30 "Hg10 mi
7:00 pm52 °FClear.3 mph94%30.30 "HgN/A
Weather by CustomWeather, © 2019

See weather overview